Wind_Speed
19 19 20 20 20 19 18 17 17 16 16 16 16 16 16 16 16 14 14 13 13 13 12 12 12 12 12 11 11 11 12 12 12 12 12 12 12 13 13 13 13 13 12
19 20 20 20 20 19 18 18 17 16 16 16 16 16 16 16 15 14 14 14 14 14 13 13 13 13 13 13 13 13 12 13 13 13 13 13 14 14 14 13 13 13 14
21 20 20 20 20 19 19 19 18 17 17 16 16 17 17 17 17 16 15 15 15 14 14 14 14 14 14 14 13 13 13 14 14 14 14 14 15 15 14 14 14 15 15
22 21 20 20 20 20 19 19 18 18 17 17 17 18 18 18 17 18 17 16 16 15 14 14 15 15 15 15 15 15 16 15 15 15 15 16 16 16 15 15 15 15 16
22 21 20 21 21 20 19 19 19 19 19 18 18 18 19 19 19 19 18 18 17 16 16 16 16 16 16 16 16 16 17 16 16 17 17 17 18 18 17 17 16 17 17
23 22 22 22 21 21 20 19 19 20 19 19 19 19 19 20 19 19 19 19 18 17 17 17 17 16 17 17 17 17 17 17 17 18 18 18 19 19 19 19 18 18 18
24 22 22 21 21 21 21 20 20 20 20 20 19 20 20 20 20 19 19 19 18 17 18 18 17 17 17 17 18 18 17 17 17 18 18 18 18 19 19 19 19 19 20
24 23 22 22 21 20 20 20 20 20 20 20 20 20 20 20 20 20 20 20 19 19 19 19 19 18 17 17 17 18 17 17 18 18 18 18 18 19 19 19 20 19 20
23 22 21 21 21 20 20 20 20 20 20 21 21 21 21 21 21 21 21 20 20 20 20 21 20 20 19 18 18 18 18 18 18 18 18 18 19 19 19 20 20 20 21
21 21 21 21 21 20 21 20 20 20 20 21 21 21 22 22 22 22 22 21 21 22 22 21 21 21 20 19 19 19 19 19 18 19 19 19 20 20 20 21 21 22 23
20 21 20 21 22 21 21 20 21 21 21 21 22 22 23 23 23 23 22 22 22 22 22 21 21 21 21 20 20 20 20 19 19 20 20 20 21 21 21 22 22 23 23
21 21 21 21 21 22 21 21 21 22 22 22 23 24 24 23 23 23 23 23 23 22 22 22 22 22 22 21 21 21 21 20 20 21 21 21 21 21 22 22 23 23 24
22 22 22 22 21 22 22 22 23 23 24 24 24 24 24 23 23 23 23 23 23 22 22 22 22 22 22 22 22 22 22 22 21 22 22 22 22 22 22 23 23 23 24
24 23 23 22 22 22 22 23 24 24 24 24 25 25 24 24 24 23 22 22 22 23 23 23 22 22 23 22 22 22 22 22 22 22 22 22 22 22 23 23 23 23 23
24 24 24 23 22 22 22 23 24 24 25 25 25 24 25 24 24 23 22 22 23 23 23 22 22 23 23 22 22 22 22 23 23 22 22 21 21 22 22 22 23 23 23
24 24 25 24 23 23 23 22 23 25 25 25 26 25 25 25 24 23 22 22 23 23 23 23 24 23 22 21 21 22 22 22 22 22 21 21 21 21 21 22 22 22 22
27 27 26 26 25 25 25 24 24 24 25 26 26 24 24 23 22 22 22 22 22 22 22 22 21 21 20 20 20 20 21 21 21 20 20 21 21 21 21 21 20 21 22
28 28 27 26 26 26 25 25 25 25 25 25 25 25 24 23 22 22 22 21 21 21 20 20 20 20 21 21 20 21 21 21 21 20 20 21 22 21 21 21 21 21 22
27 27 26 26 25 26 26 25 25 25 25 24 24 25 24 23 23 22 22 22 22 21 21 21 21 21 21 22 22 22 21 20 21 21 21 22 21 21 21 21 21 21 22
27 27 27 26 26 25 26 27 26 26 25 24 24 25 24 23 23 22 22 22 22 21 22 22 22 21 21 22 22 23 21 21 20 20 20 21 21 21 20 20 20 21 21
27 27 27 27 26 26 26 27 27 26 25 25 25 24 24 23 23 22 22 22 22 22 22 22 22 22 22 22 22 22 21 21 20 20 20 20 20 20 20 20 20 20 21
28 28 28 27 27 27 27 27 26 26 25 24 24 24 24 23 23 23 22 22 22 21 21 21 21 22 22 22 22 21 20 20 20 20 19 19 19 19 20 20 20 20 20
28 29 28 27 27 26 27 27 26 26 25 25 24 24 24 23 23 23 22 22 22 21 21 21 21 21 21 21 22 21 20 20 20 19 19 19 19 18 19 20 20 20 20
27 28 27 26 26 26 26 25 25 25 25 25 25 25 25 24 23 23 22 21 20 20 20 20 19 19 19 20 20 20 20 20 20 19 19 19 19 19 20 20 20 20 19
26 26 25 25 25 25 25 24 24 24 24 24 25 25 26 24 23 22 22 21 20 20 20 19 19 19 19 18 18 19 20 21 20 19 19 19 19 19 20 20 19 19 18
27 25 25 25 25 26 25 25 24 24 24 24 25 25 25 23 22 21 21 20 20 19 19 19 19 18 18 17 18 18 18 19 20 19 19 19 19 19 19 19 19 19 19
Wind_Direction
268 268 268 270 274 276 277 278 281 285 286 287 286 286 287 287 291 291 290 291 289 285 282 288 293 291 286 279 278 281 286 287 286 286 284 284 285 283 280 278 277 277 277
265 265 269 271 273 273 274 274 276 279 283 285 283 284 287 286 287 288 290 290 287 282 277 279 286 287 285 282 278 277 279 281 284 286 286 285 285 286 283 282 282 281 282
269 269 269 272 274 273 274 273 273 276 279 281 280 283 286 287 288 286 286 287 284 282 281 279 282 282 282 282 280 278 279 282 281 281 285 286 286 286 283 281 280 281 283
268 270 269 270 271 273 273 270 269 272 275 277 279 282 285 286 286 286 284 285 282 280 282 282 280 281 283 283 284 284 283 281 278 278 283 285 284 282 280 280 281 281 282
270 269 270 270 270 271 270 269 269 271 272 275 279 282 285 285 285 285 282 282 277 276 279 281 281 282 284 285 285 284 286 281 278 279 282 283 283 280 280 279 279 282 284
272 271 268 266 267 268 268 268 270 271 270 273 276 280 282 282 282 282 281 280 276 277 278 280 281 282 285 286 284 284 285 282 280 281 281 282 281 279 278 279 279 280 284
271 267 263 265 265 266 267 268 268 269 269 270 272 277 279 279 279 280 280 278 276 276 279 279 279 282 285 285 286 284 282 284 282 282 283 283 282 278 279 280 280 281 283
269 267 264 264 265 266 268 269 268 268 267 268 271 275 277 278 278 279 278 276 275 276 277 278 278 280 283 285 285 285 285 284 284 282 283 283 282 282 282 282 281 281 283
269 268 266 262 262 266 268 269 269 269 266 267 270 273 276 277 276 277 276 273 273 274 275 276 276 277 279 282 283 284 286 285 283 283 284 284 285 285 285 285 284 283 284
267 266 263 261 262 266 267 268 268 269 268 268 269 272 274 274 274 274 273 273 274 273 274 275 275 276 277 281 282 283 285 284 282 282 283 284 285 285 286 286 286 285 285
266 266 262 262 263 264 266 267 267 269 271 270 271 272 273 272 273 272 272 272 272 270 270 272 272 276 278 280 281 283 285 286 285 285 285 286 285 284 285 286 285 286 285
263 264 264 263 265 265 266 267 268 268 269 270 271 271 272 271 272 272 270 270 269 267 268 270 272 275 278 279 280 283 284 285 285 285 286 285 285 285 286 286 287 288 288
263 263 264 264 266 268 267 268 268 268 269 270 270 272 271 270 271 270 269 268 266 266 267 269 272 275 277 278 280 281 282 284 285 285 285 285 285 285 286 286 287 288 289
263 262 264 266 267 267 266 267 268 268 268 269 271 272 272 271 271 270 268 267 266 268 268 270 272 274 276 277 279 280 281 283 286 287 287 286 285 286 286 287 288 289 290
261 261 263 264 268 269 268 268 269 268 268 269 271 272 273 273 270 267 266 267 266 267 268 269 270 272 273 276 278 279 280 283 285 287 287 285 286 288 288 288 289 290 290
262 262 263 263 266 268 268 270 269 268 268 270 271 272 271 271 268 266 268 268 267 268 269 269 269 269 269 270 273 277 281 284 285 286 288 287 287 287 287 289 291 290 290
264 264 264 265 267 268 269 270 271 272 272 270 272 273 271 271 268 266 267 267 267 270 270 270 269 270 270 272 275 281 283 283 284 284 286 289 289 288 287 288 290 290 290
264 264 264 263 264 267 270 269 269 270 272 272 271 272 272 270 269 269 270 271 271 270 268 269 269 269 271 274 277 281 282 282 282 280 283 288 289 290 290 290 290 290 290
261 263 264 265 266 266 269 270 268 270 272 271 270 270 271 271 271 271 271 271 270 267 267 270 270 270 272 274 276 279 281 282 282 282 283 287 290 290 289 290 291 291 292
258 260 262 265 267 268 268 270 270 271 272 272 271 270 270 271 270 270 270 268 268 269 269 269 270 271 273 275 276 278 279 280 282 282 280 284 287 287 287 290 291 292 292
257 258 261 265 267 269 270 269 271 271 271 270 271 270 269 269 268 268 268 268 267 269 270 270 271 272 273 274 277 276 277 279 282 283 280 281 285 284 285 290 290 290 292
256 258 261 265 267 268 269 269 270 269 270 270 270 270 268 267 267 267 266 267 268 268 268 268 269 270 271 273 275 274 275 278 280 282 281 279 283 283 286 288 290 290 291
257 259 262 265 265 266 267 266 266 267 268 269 268 268 268 268 266 265 266 265 266 267 268 268 270 272 271 272 274 273 275 277 278 279 280 281 283 287 286 287 289 290 290
259 260 261 264 264 265 264 263 264 266 267 267 267 266 266 265 264 263 263 264 265 266 267 270 272 274 273 273 272 271 273 277 278 279 281 281 282 286 288 289 288 287 287
258 259 259 259 261 263 263 263 263 264 265 266 266 265 265 263 263 265 262 261 264 266 268 271 272 274 274 273 272 273 276 277 278 280 282 282 283 284 287 288 288 287 286
260 260 258 258 259 260 260 261 262 262 264 264 263 263 263 262 263 264 264 263 265 266 266 268 270 272 273 273 276 278 281 281 278 280 282 282 282 283 286 288 289 288 287
Height
5848 5849 5849 5850 5850 5850 5850 5850 5850 5850 5850 5850 5850 5849 5849 5849 5849 5849 5849 5848 5848 5848 5848 5848 5848 5848 5848 5848 5848 5848 5848 5848 5848 5848 5849 5849 5849 5849 5849 5849 5849 5850 5850
5844 5844 5845 5845 5846 5846 5847 5847 5847 5847 5847 5847 5847 5847 5847 5847 5846 5846 5846 5845 5845 5845 5845 5845 5845 5845 5845 5845 5845 5845 5845 5846 5846 5846 5845 5846 5846 5845 5845 5846 5846 5846 5846
5839 5840 5841 5841 5842 5842 5843 5843 5843 5843 5843 5843 5844 5844 5844 5844 5843 5843 5843 5843 5842 5842 5842 5842 5842 5842 5842 5842 5842 5842 5842 5842 5842 5842 5842 5842 5842 5842 5842 5842 5842 5842 5843
5835 5835 5835 5836 5837 5838 5838 5839 5839 5839 5839 5840 5841 5841 5841 5841 5841 5840 5840 5840 5840 5840 5839 5839 5839 5839 5839 5839 5839 5839 5839 5838 5838 5838 5838 5838 5838 5838 5839 5839 5838 5839 5839
5830 5831 5832 5832 5832 5833 5833 5834 5835 5836 5836 5836 5837 5838 5838 5838 5838 5837 5836 5836 5837 5837 5836 5836 5836 5836 5836 5835 5835 5835 5835 5834 5834 5834 5834 5834 5833 5833 5834 5834 5834 5834 5834
5826 5826 5827 5827 5827 5828 5829 5830 5831 5831 5832 5832 5833 5833 5834 5834 5834 5833 5833 5833 5833 5833 5833 5833 5833 5832 5832 5832 5831 5831 5830 5830 5830 5830 5830 5829 5829 5829 5829 5829 5830 5830 5829
5821 5822 5822 5822 5822 5823 5824 5825 5826 5827 5827 5828 5828 5829 5829 5829 5829 5829 5829 5829 5829 5829 5829 5829 5829 5829 5828 5828 5827 5827 5826 5826 5826 5826 5825 5825 5824 5824 5824 5824 5824 5824 5824
5816 5816 5817 5817 5818 5818 5819 5820 5821 5822 5822 5823 5823 5824 5824 5824 5824 5824 5824 5824 5824 5825 5825 5825 5825 5825 5824 5824 5823 5823 5823 5822 5822 5821 5821 5821 5820 5819 5819 5819 5819 5819 5819
5811 5811 5811 5812 5812 5813 5814 5815 5816 5817 5817 5818 5818 5819 5819 5819 5819 5819 5819 5819 5819 5820 5820 5820 5820 5820 5820 5820 5819 5819 5819 5818 5817 5817 5816 5816 5815 5815 5814 5814 5813 5813 5813
5806 5806 5806 5807 5807 5807 5809 5810 5811 5811 5812 5813 5813 5813 5813 5813 5813 5814 5814 5814 5815 5815 5815 5815 5815 5815 5815 5815 5815 5814 5814 5813 5813 5812 5812 5811 5810 5810 5809 5809 5808 5807 5806
5801 5801 5801 5802 5803 5804 5805 5805 5806 5806 5807 5807 5808 5808 5808 5808 5808 5808 5809 5809 5809 5809 5810 5810 5810 5810 5810 5809 5809 5809 5809 5808 5808 5807 5807 5806 5805 5805 5804 5803 5802 5801 5800
5796 5796 5796 5797 5798 5799 5800 5800 5801 5801 5802 5802 5802 5802 5803 5803 5803 5803 5803 5803 5803 5804 5804 5805 5805 5805 5804 5804 5804 5803 5803 5803 5802 5802 5801 5801 5800 5799 5798 5797 5796 5794 5793
5791 5792 5792 5793 5793 5794 5794 5795 5795 5796 5796 5796 5796 5796 5797 5797 5797 5797 5797 5797 5798 5798 5799 5799 5799 5799 5799 5799 5798 5798 5797 5797 5797 5796 5795 5795 5794 5793 5792 5790 5789 5788 5787
5786 5786 5786 5787 5788 5788 5788 5789 5789 5790 5790 5790 5790 5790 5790 5791 5790 5790 5791 5791 5792 5792 5792 5793 5793 5793 5793 5792 5792 5792 5792 5791 5790 5790 5789 5788 5787 5786 5785 5784 5783 5782 5780
5780 5780 5781 5782 5782 5782 5783 5783 5783 5783 5783 5783 5784 5784 5784 5784 5784 5784 5785 5785 5785 5786 5786 5786 5786 5787 5787 5786 5786 5786 5786 5785 5784 5784 5783 5782 5781 5780 5779 5778 5777 5775 5774
5774 5775 5775 5775 5776 5776 5776 5776 5777 5777 5777 5777 5777 5777 5777 5778 5778 5778 5779 5779 5779 5780 5780 5780 5780 5781 5781 5780 5780 5780 5780 5779 5778 5778 5777 5776 5775 5774 5773 5772 5770 5769 5768
5768 5769 5769 5769 5770 5770 5770 5770 5771 5770 5770 5770 5770 5770 5771 5771 5772 5772 5773 5773 5773 5773 5773 5774 5774 5774 5775 5775 5774 5774 5774 5773 5772 5772 5771 5770 5769 5768 5767 5766 5764 5763 5761
5762 5762 5762 5763 5764 5764 5764 5764 5764 5764 5764 5764 5764 5764 5764 5765 5765 5766 5766 5767 5767 5767 5768 5768 5768 5768 5769 5769 5769 5768 5767 5767 5766 5766 5765 5764 5763 5762 5761 5759 5758 5757 5756
5755 5755 5755 5756 5758 5758 5757 5757 5758 5758 5757 5757 5758 5758 5758 5759 5759 5760 5760 5761 5761 5761 5761 5762 5762 5762 5762 5762 5762 5762 5761 5761 5760 5759 5759 5758 5757 5756 5755 5754 5752 5751 5750
5748 5748 5749 5750 5751 5751 5751 5751 5751 5751 5751 5751 5751 5751 5752 5752 5753 5753 5754 5754 5754 5754 5755 5755 5756 5756 5756 5756 5756 5755 5755 5754 5754 5753 5753 5752 5751 5750 5749 5748 5747 5746 5745
5740 5741 5742 5743 5743 5744 5744 5744 5744 5744 5744 5744 5744 5745 5745 5746 5746 5747 5747 5748 5748 5748 5748 5749 5749 5749 5750 5749 5749 5748 5748 5748 5747 5747 5746 5746 5745 5744 5743 5742 5741 5740 5739
5732 5734 5735 5735 5736 5736 5736 5737 5737 5737 5737 5737 5738 5738 5739 5739 5740 5740 5741 5741 5742 5742 5742 5742 5743 5743 5743 5743 5742 5742 5742 5741 5741 5741 5740 5740 5739 5738 5738 5737 5735 5734 5733
5725 5726 5727 5728 5728 5729 5729 5729 5730 5730 5730 5731 5731 5732 5733 5733 5733 5734 5734 5735 5735 5735 5736 5736 5736 5736 5736 5736 5735 5735 5735 5735 5735 5735 5735 5734 5733 5732 5732 5731 5730 5728 5727
5717 5718 5719 5720 5721 5722 5722 5722 5723 5723 5724 5724 5724 5724 5725 5726 5726 5727 5728 5728 5729 5729 5729 5730 5730 5730 5730 5730 5730 5730 5730 5730 5729 5729 5729 5728 5727 5727 5726 5725 5724 5723 5722
5710 5710 5711 5713 5714 5714 5715 5715 5716 5716 5717 5717 5717 5718 5718 5719 5719 5720 5721 5722 5722 5723 5723 5723 5724 5724 5724 5724 5724 5724 5724 5724 5723 5723 5723 5723 5722 5722 5721 5720 5719 5718 5717
5702 5703 5704 5706 5707 5707 5708 5709 5709 5710 5711 5711 5711 5711 5711 5712 5712 5713 5715 5715 5716 5716 5717 5718 5718 5718 5718 5718 5718 5719 5718 5718 5718 5717 5717 5717 5716 5716 5715 5714 5713 5712 5711